Fremont, MI

7:00 PM EST on November 21, 2019 (GMT -0500)
Fremont

Weather History for KFFX - September, 2019

Change the Weather History Date:

Monday, September 9, 2019

  Actual Average (WUND) Record (WUND)
Temperature  
Mean Temperature 57 °F -  
Max Temperature 63 °F - - (-1)
Min Temperature 51 °F - - (-1)
Degree Days  
Heating Degree Days 8    
Growing Degree Days 7 (Base 50)    
Moisture  
Dew Point 48 °F    
Average Humidity 72    
Maximum Humidity 92    
Minimum Humidity 56    
Precipitation  
Precipitation 0.00 in - - ()
Sea Level Pressure  
Sea Level Pressure 30.22 in    
Wind  
Wind Speed 6 mph ()    
Max Wind Speed 13 mph    
Max Gust Speed -    
Visibility 9.9 miles    
Events Rain    
Averages and records for this station are not official NWS values.
T = Trace of Precipitation, MM = Missing Value Source: Averaged Metar Reports

Daily Weather History Graph

Daily Weather History Graph

Search for Another Location

Airport or City:

Astronomy

Sep. 09, 2019 Rise Set
Actual Time 7:16 AM EDT 8:05 PM EDT
Civil Twilight 6:47 AM EDT 8:34 PM EDT
Nautical Twilight 6:13 AM EDT 9:08 PM EDT
Astronomical Twilight 5:37 AM EDT 9:44 PM EDT
Moon 6:08 PM EDT (9/9) 2:38 AM EDT (9/9)
Length of Visible Light 13h 46m
Length of Day
12h 48m
Waxing Gibbous, 83% of the Moon is Illuminated
Sep 9
Waxing Gibbous
Sep 14
Full
Sep 21
Last Quarter
Sep 28
New
Oct 5
First Quarter

Hourly Weather History & Observations

Time (EDT) Temp. Dew Point Humidity Pressure Visibility Wind Dir Wind Speed Gust Speed Precip Events Conditions
12:17 AM 56.8 °F 43.7 °F 61% 30.23 in 10.0 mi East 5.8 mph - N/A   Overcast
12:35 AM 56.7 °F 43.7 °F 62% 30.23 in 10.0 mi East 4.6 mph - N/A   Overcast
12:55 AM 56.5 °F 43.7 °F 62% 30.22 in 10.0 mi East 5.8 mph - N/A   Overcast
12:56 AM 56.5 °F 43.7 °F 62% 30.22 in 10.0 mi East 4.6 mph - N/A   Overcast
1:15 AM 56.3 °F 43.7 °F 63% 30.22 in 10.0 mi East 5.8 mph - N/A   Overcast
1:20 AM 56.3 °F 43.7 °F 63% 30.23 in 10.0 mi ESE 4.6 mph - N/A   Overcast
1:38 AM 56.3 °F 43.7 °F 63% 30.23 in 10.0 mi ESE 5.8 mph - N/A   Overcast
1:56 AM 55.9 °F 43.7 °F 63% 30.23 in 10.0 mi East 4.6 mph - N/A   Overcast
2:15 AM 55.8 °F 43.3 °F 63% 30.23 in 10.0 mi East 4.6 mph - N/A   Overcast
2:35 AM 55.4 °F 43.2 °F 63% 30.22 in 10.0 mi East 5.8 mph - N/A   Overcast
2:59 AM 55.4 °F 42.8 °F 63% 30.22 in 10.0 mi East 4.6 mph - N/A   Overcast
3:17 AM 55.4 °F 42.8 °F 63% 30.21 in 10.0 mi East 4.6 mph - N/A   Overcast
3:36 AM 55.4 °F 41.5 °F 60% 30.21 in 10.0 mi East 5.8 mph - N/A   Overcast
3:55 AM 55.4 °F 41.0 °F 58% 30.21 in 10.0 mi ESE 4.6 mph - N/A   Overcast
4:15 AM 55.4 °F 40.3 °F 57% 30.21 in 10.0 mi ESE 5.8 mph - N/A   Overcast
4:37 AM 54.9 °F 39.7 °F 57% 30.21 in 10.0 mi East 3.5 mph - N/A   Overcast
4:55 AM 54.9 °F 39.6 °F 56% 30.23 in 10.0 mi East 3.5 mph - N/A   Overcast
5:15 AM 55.0 °F 39.6 °F 56% 30.23 in 10.0 mi East 3.5 mph - N/A   Overcast
5:35 AM 54.9 °F 39.9 °F 57% 30.24 in 10.0 mi East 5.8 mph - N/A   Overcast
5:40 AM 54.9 °F 40.5 °F 58% 30.24 in 10.0 mi East 4.6 mph - N/A   Overcast
5:58 AM 54.7 °F 41.0 °F 60% 30.24 in 10.0 mi East 6.9 mph - N/A   Overcast
6:16 AM 54.5 °F 41.2 °F 61% 30.24 in 10.0 mi East 6.9 mph - N/A   Overcast
6:35 AM 54.0 °F 41.7 °F 63% 30.25 in 10.0 mi ESE 4.6 mph - N/A   Overcast
6:55 AM 53.6 °F 42.8 °F 67% 30.25 in 10.0 mi SE 8.1 mph - N/A   Overcast
6:56 AM 53.6 °F 42.8 °F 67% 30.25 in 10.0 mi ESE 8.1 mph - N/A   Overcast
7:19 AM 52.7 °F 45.9 °F 78% 30.26 in 10.0 mi East 5.8 mph - N/A   Overcast
7:37 AM 52.3 °F 47.3 °F 83% 30.26 in 10.0 mi East 9.2 mph - N/A   Overcast
7:56 AM 51.8 °F 48.0 °F 87% 30.27 in 7.0 mi ESE 4.6 mph - N/A   Overcast
8:15 AM 51.4 °F 48.6 °F 90% 30.27 in 5.0 mi ESE 8.1 mph - N/A   Overcast
8:35 AM 51.3 °F 49.1 °F 92% 30.26 in 7.0 mi ESE 6.9 mph - N/A   Overcast
8:57 AM 52.0 °F 49.3 °F 90% 30.27 in 10.0 mi ESE 6.9 mph - N/A   Overcast
9:16 AM 52.7 °F 49.5 °F 89% 30.27 in 10.0 mi ESE 5.8 mph - N/A   Overcast
9:35 AM 53.6 °F 49.6 °F 86% 30.27 in 10.0 mi ESE 8.1 mph - N/A   Overcast
9:36 AM 53.6 °F 49.6 °F 86% 30.27 in 10.0 mi ESE 9.2 mph - N/A   Overcast
9:55 AM 54.3 °F 49.6 °F 84% 30.27 in 10.0 mi ESE 6.9 mph - N/A   Overcast
9:56 AM 54.3 °F 49.6 °F 84% 30.27 in 10.0 mi ESE 6.9 mph - N/A   Overcast
10:19 AM 55.4 °F 49.8 °F 81% 30.27 in 10.0 mi ESE 6.9 mph - N/A   Overcast
10:37 AM 56.3 °F 48.7 °F 76% 30.27 in 10.0 mi ESE 8.1 mph - N/A   Overcast
10:56 AM 57.0 °F 47.7 °F 71% 30.26 in 10.0 mi ESE 8.1 mph - N/A   Overcast
11:15 AM 57.0 °F 47.7 °F 71% 30.26 in 10.0 mi East 9.2 mph - N/A   Overcast
11:35 AM 57.2 °F 48.9 °F 74% 30.25 in 10.0 mi East 5.8 mph - N/A   Overcast
11:58 AM 56.5 °F 50.5 °F 80% 30.26 in 10.0 mi East 8.1 mph - N/A   Overcast
12:16 PM 57.2 °F 50.5 °F 78% 30.26 in 10.0 mi East 8.1 mph - N/A   Overcast
12:35 PM 58.1 °F 49.3 °F 72% 30.26 in 10.0 mi ESE 6.9 mph - N/A   Overcast
12:55 PM 58.1 °F 49.8 °F 74% 30.27 in 10.0 mi ESE 8.1 mph - N/A   Overcast
1:19 PM 58.1 °F 51.4 °F 78% 30.26 in 10.0 mi East 6.9 mph - N/A   Overcast
1:37 PM 59.9 °F 48.9 °F 67% 30.26 in 10.0 mi East 10.4 mph - N/A   Overcast
1:55 PM 60.3 °F 49.3 °F 67% 30.27 in 10.0 mi ESE 8.1 mph - N/A   Overcast
2:15 PM 60.3 °F 49.5 °F 68% 30.27 in 10.0 mi ESE 6.9 mph - N/A   Overcast
2:35 PM 60.6 °F 48.9 °F 65% 30.26 in 10.0 mi East 4.6 mph - N/A   Overcast
2:58 PM 62.2 °F 49.1 °F 62% 30.25 in 10.0 mi East 6.9 mph - N/A   Overcast
3:16 PM 63.1 °F 49.1 °F 60% 30.25 in 10.0 mi East 5.8 mph - N/A   Overcast
3:35 PM 62.6 °F 49.6 °F 63% 30.24 in 10.0 mi East 4.6 mph - N/A   Overcast
3:55 PM 61.9 °F 49.6 °F 64% 30.23 in 10.0 mi East 6.9 mph - N/A   Overcast
4:19 PM 63.1 °F 50.2 °F 63% 30.22 in 10.0 mi East 8.1 mph - N/A   Overcast
4:37 PM 63.9 °F 50.0 °F 61% 30.22 in 10.0 mi East 8.1 mph - N/A   Overcast
4:55 PM 63.5 °F 50.2 °F 62% 30.20 in 10.0 mi East 11.5 mph - N/A   Overcast
4:56 PM 63.5 °F 50.2 °F 62% 30.20 in 10.0 mi East 12.7 mph - N/A   Overcast
5:15 PM 63.0 °F 50.5 °F 64% 30.19 in 10.0 mi East 10.4 mph - N/A   Mostly Cloudy
5:35 PM 63.7 °F 50.9 °F 63% 30.18 in 10.0 mi East 10.4 mph - N/A   Scattered Clouds
5:58 PM 62.6 °F 50.7 °F 65% 30.19 in 10.0 mi East 9.2 mph - N/A   Scattered Clouds
6:16 PM 62.2 °F 51.3 °F 67% 30.19 in 10.0 mi East 9.2 mph - N/A   Mostly Cloudy
6:35 PM 62.1 °F 51.6 °F 69% 30.19 in 10.0 mi East 8.1 mph - N/A   Overcast
6:55 PM 62.1 °F 52.3 °F 70% 30.19 in 10.0 mi East 8.1 mph - N/A   Overcast
7:19 PM 61.7 °F 53.2 °F 74% 30.18 in 10.0 mi East 6.9 mph - N/A   Mostly Cloudy
7:36 PM 61.3 °F 54.1 °F 77% 30.19 in 10.0 mi East 5.8 mph - N/A   Mostly Cloudy
7:55 PM 61.2 °F 54.9 °F 80% 30.18 in 10.0 mi East 5.8 mph - N/A   Overcast
7:56 PM 61.2 °F 55.0 °F 80% 30.18 in 10.0 mi East 5.8 mph - N/A   Overcast
8:15 PM 60.8 °F 55.4 °F 82% 30.18 in 10.0 mi East 6.9 mph - N/A   Mostly Cloudy
8:35 PM 60.1 °F 55.4 °F 85% 30.17 in 10.0 mi East 5.8 mph - N/A   Scattered Clouds
8:58 PM 59.9 °F 55.4 °F 85% 30.17 in 10.0 mi ESE 5.8 mph - N/A   Clear
9:16 PM 59.9 °F 55.4 °F 85% 30.17 in 10.0 mi ESE 5.8 mph - N/A   Scattered Clouds
9:35 PM 60.1 °F 55.4 °F 85% 30.17 in 10.0 mi ESE 6.9 mph - N/A   Mostly Cloudy
9:36 PM 60.1 °F 55.4 °F 85% 30.17 in 10.0 mi ESE 5.8 mph - N/A   Mostly Cloudy
9:55 PM 59.9 °F 55.4 °F 85% 30.16 in 10.0 mi ESE 4.6 mph - N/A   Scattered Clouds
10:19 PM 59.9 °F 55.2 °F 84% 30.15 in 10.0 mi East 6.9 mph - N/A   Scattered Clouds
10:37 PM 59.9 °F 55.0 °F 84% 30.15 in 10.0 mi ESE 6.9 mph - N/A   Scattered Clouds
10:55 PM 60.6 °F 54.7 °F 81% 30.15 in 10.0 mi ESE 8.1 mph - N/A   Mostly Cloudy
10:56 PM 60.6 °F 54.5 °F 80% 30.15 in 10.0 mi ESE 6.9 mph - N/A   Mostly Cloudy
11:15 PM 60.3 °F 55.4 °F 84% 30.14 in 10.0 mi ESE 8.1 mph - N/A Rain Rain
11:35 PM 60.1 °F 55.6 °F 85% 30.13 in 10.0 mi ESE 9.2 mph - N/A   Scattered Clouds
11:58 PM 60.1 °F 55.8 °F 86% 30.14 in 10.0 mi ESE 6.9 mph - N/A   Clear